Simultaneous Nadir Overpasses (SNOs) Predictions

Prediction of SNOs between FY3D and METOP-A Satellite Orbit:

Table of predicted SNOs for the next 14.0 days since TLE Epoch: 4/24/2019
Index Date (FY3D) Time (FY3D) Lat,Lon (FY3D) SZA (FY3D ) Date (METOP-A) Time (METOP-A) Lat,Lon (METOP-A) SZA (METOP-A ) Distance(km) Time Diff (sec)
1 05/08/2019 00:30:19 75.09, 159.92 58.39 05/08/2019 00:31:24 75.06, 163.19 58.18 93.75 65
2 05/08/2019 01:21:01 -75.01, -32.55 121.71 05/08/2019 01:22:08 -74.97, -29.73 121.91 81.42 67
3 05/08/2019 02:11:42 74.79, 135.39 58.04 05/08/2019 02:12:52 74.73, 136.97 57.88 46.63 70
4 05/08/2019 03:02:24 -74.72, -57.09 122.06 05/08/2019 03:03:35 -74.70, -55.81 122.17 37.76 71




NCC Satellite Simultaneous Nadir Overpasses (SNOs) Prediction Service
